Theta_e
351 356 360 360 361 362 362 362 362 361 360 359 358 360 361 361 361 362 362 362 363 364 364 362 362 362 362 362 362 362 363 362 362 361 361 362 363 362 361 363 363 360 363
350 354 361 359 361 361 361 361 361 361 361 360 360 360 361 362 362 361 362 362 363 363 363 363 363 363 363 362 362 362 362 363 366 363 363 363 363 361 361 362 365 359 364
347 351 353 361 359 362 360 360 360 360 359 357 360 361 362 362 362 361 363 363 363 363 363 363 363 362 363 363 362 362 361 360 361 363 368 355 360 364 363 364 364 364 363
346 347 350 362 360 360 362 361 361 360 360 359 361 361 362 362 362 361 362 363 363 365 362 363 363 362 363 363 363 361 360 357 355 356 356 353 354 362 361 363 363 362 364
349 352 357 361 361 360 362 361 360 360 361 360 359 362 362 362 363 362 362 363 363 363 361 361 362 362 362 362 360 360 357 357 366 359 357 357 355 359 361 362 363 363 364
350 355 362 362 361 360 361 361 361 359 361 361 359 362 361 362 363 363 361 360 361 361 360 360 361 361 362 361 360 356 355 356 364 355 355 358 359 362 363 362 363 363 363
351 354 360 362 361 361 360 359 361 361 360 361 359 362 361 363 362 363 363 361 362 361 359 361 362 362 362 362 360 357 354 356 350 351 355 356 360 364 363 363 363 363 363
349 353 357 361 362 362 361 361 361 362 360 361 360 362 360 361 362 361 362 361 361 362 362 361 362 360 360 360 360 356 355 359 353 351 349 356 359 362 362 363 362 362 362
351 350 352 357 361 360 358 359 360 362 361 361 362 361 358 358 358 358 361 361 361 361 360 359 357 357 357 359 361 356 354 355 358 356 348 347 360 361 362 362 362 362 362
350 349 354 357 357 363 356 358 360 361 361 360 363 359 360 360 360 361 361 358 360 361 360 359 358 357 357 359 360 358 356 357 356 356 353 356 362 356 361 361 362 361 361
348 349 350 352 356 360 360 358 361 362 361 362 362 361 358 360 357 354 356 359 356 360 359 358 357 359 360 361 360 360 357 353 352 354 352 359 363 360 356 359 360 359 361
345 347 348 351 353 356 357 363 362 359 362 360 359 359 357 357 357 351 351 354 354 359 360 359 357 357 359 354 354 358 357 354 352 351 353 361 360 361 360 355 360 360 357
345 347 350 354 355 354 359 360 356 357 357 359 361 359 360 356 353 355 355 357 360 360 362 358 355 354 357 357 359 359 356 352 351 351 355 359 359 358 359 358 355 358 360
345 347 350 354 358 355 357 356 356 357 357 355 356 361 358 356 355 356 354 355 357 359 364 355 349 351 355 359 355 360 351 356 350 351 357 359 359 359 359 359 353 353 358
344 347 350 353 357 356 360 355 356 358 357 357 356 358 358 355 357 356 355 355 357 360 356 354 352 353 353 355 357 357 354 354 348 352 353 359 358 357 359 359 359 358 354
345 347 349 352 357 358 362 363 361 359 359 359 361 359 362 361 358 361 355 356 354 355 353 357 359 354 352 351 352 355 357 355 356 354 354 357 359 358 356 359 359 359 359
344 348 349 352 356 359 361 360 359 359 361 361 363 363 363 362 359 360 358 356 354 359 358 356 357 356 353 352 350 351 354 356 353 352 353 353 357 359 359 357 359 359 359
344 347 349 349 353 356 358 358 360 364 360 361 358 360 362 363 363 361 356 358 360 359 358 356 355 356 355 357 352 350 351 352 355 353 354 352 355 352 359 360 358 359 360
345 344 346 350 350 355 361 362 361 363 360 359 361 361 366 365 364 367 359 360 363 359 354 357 360 360 359 356 352 353 350 350 353 352 355 356 352 353 353 360 361 361 359
344 346 348 350 355 357 359 361 359 360 359 360 359 360 363 367 364 365 361 363 362 359 361 354 357 359 362 351 347 347 350 350 353 352 353 351 351 353 351 354 355 355 360
341 345 348 350 358 357 355 352 350 356 354 360 361 362 362 363 365 367 360 362 361 362 361 359 355 357 353 355 350 352 350 351 350 352 354 352 351 351 352 351 351 351 355
339 342 346 349 356 357 355 354 352 353 353 354 361 363 366 366 364 365 365 362 363 359 361 360 358 359 355 350 349 349 347 348 348 350 354 352 349 353 352 353 350 352 353
340 341 343 349 355 359 359 355 358 359 356 350 351 359 359 364 364 369 367 367 368 364 361 359 361 357 352 347 346 345 343 344 345 352 350 351 349 352 351 351 352 352 354
344 344 345 348 357 358 361 361 360 351 353 352 352 362 359 362 361 365 368 367 367 363 358 366 358 360 356 345 344 347 350 355 343 349 349 350 352 349 351 351 350 352 354
348 345 348 350 356 359 361 362 356 357 353 351 352 359 363 365 362 361 362 365 367 358 359 363 359 360 366 349 345 349 351 357 356 348 343 347 352 355 352 350 353 354 354
346 347 348 351 355 359 359 359 360 358 356 355 352 351 355 356 359 362 359 362 364 356 355 359 364 362 357 356 350 359 351 349 344 346 346 344 343 345 351 352 351 354 355
Wind_Speed
13 14 11 11 12 12 13 12 12 11 10 9 9 8 9 9 10 12 13 14 16 15 16 17 17 18 18 18 17 17 17 17 19 19 19 17 16 14 14 15 18 18 17
18 16 11 12 11 12 11 11 10 10 9 6 10 8 10 10 11 11 14 14 15 15 18 17 17 18 18 18 18 17 16 14 16 20 21 19 16 16 19 13 18 17 17
18 17 13 11 11 10 10 9 9 9 9 6 10 9 10 11 12 12 14 14 16 17 16 17 16 16 18 17 17 15 13 10 12 17 19 14 14 17 17 18 17 18 17
18 16 15 10 10 10 9 8 8 9 8 7 9 10 10 11 12 12 14 14 14 15 15 15 16 15 17 16 17 13 11 5 2 0 1 13 15 15 16 17 16 16 16
16 17 17 12 10 9 9 7 7 8 9 9 8 11 10 11 13 13 14 14 14 14 14 14 15 14 15 16 15 11 7 4 11 14 11 11 13 13 16 16 15 15 15
14 21 16 12 9 8 9 8 8 7 8 9 8 10 10 11 12 13 11 13 13 13 13 14 13 14 13 15 13 9 4 5 6 6 15 15 14 15 17 18 17 17 16
16 17 15 11 10 7 6 6 7 9 8 8 9 11 10 12 11 12 13 11 12 12 12 13 13 13 12 12 11 7 1 3 12 10 10 14 13 14 16 16 16 16 16
14 17 15 11 8 7 7 7 9 9 9 8 10 13 12 9 10 9 11 10 9 11 11 11 11 9 9 10 10 5 2 6 4 12 13 13 11 14 15 16 15 15 16
16 13 15 16 11 8 6 6 9 9 8 10 13 19 13 10 10 10 10 9 11 10 11 9 9 7 5 7 9 5 1 3 4 8 14 9 10 14 14 14 14 14 14
11 9 15 10 11 8 7 10 10 10 10 13 16 17 15 12 13 12 11 9 7 10 9 8 7 5 5 8 9 8 7 6 8 5 8 9 10 12 13 13 14 14 13
8 9 11 15 7 13 11 12 11 12 13 16 15 15 12 6 6 9 9 8 6 6 8 7 4 6 10 11 10 9 9 3 8 4 9 9 10 12 12 12 12 12 12
11 9 8 14 13 10 13 10 9 11 8 9 11 8 6 8 4 4 6 6 2 7 8 7 3 5 8 7 6 7 5 3 0 9 9 9 9 12 12 11 11 11 11
10 8 14 9 12 9 11 10 6 7 9 8 9 10 4 4 4 3 2 1 0 7 5 8 2 2 6 4 3 3 7 7 5 4 11 10 8 10 11 11 10 10 10
11 9 12 9 8 7 9 5 5 2 4 4 10 10 8 6 4 3 2 3 7 6 6 7 4 3 1 2 2 5 4 6 7 6 11 11 9 9 10 11 11 10 10
12 11 11 11 6 7 2 5 4 4 3 6 7 5 2 9 4 4 4 4 6 4 6 6 6 6 8 8 4 3 3 2 2 8 8 12 9 9 10 10 11 10 10
12 12 14 12 9 9 6 5 5 2 4 6 2 3 9 4 5 5 7 8 5 5 5 3 4 5 5 5 6 6 2 3 1 8 10 10 10 9 10 11 10 11 11
12 12 13 14 11 8 12 8 2 3 4 3 4 5 5 7 6 5 3 5 4 4 1 3 3 5 6 4 7 6 8 3 5 4 7 10 11 11 10 11 11 11 10
11 11 12 11 14 9 8 4 2 1 5 4 6 6 8 7 9 8 6 6 4 3 2 3 3 4 1 2 6 7 6 8 4 8 5 7 8 8 12 13 12 12 12
10 8 12 8 9 10 9 4 4 6 3 6 3 6 6 7 7 6 3 4 4 3 6 4 2 2 3 4 6 5 7 5 7 7 4 9 6 7 8 15 14 11 12
14 13 11 9 9 6 9 1 3 4 4 7 5 4 5 3 5 7 6 6 6 3 3 3 4 3 4 8 4 6 7 7 6 6 7 8 11 11 10 13 11 10 13
15 13 11 11 12 7 5 6 4 3 3 5 5 5 4 4 5 3 4 5 4 3 4 4 5 7 3 7 5 5 3 6 9 5 5 2 8 7 9 8 7 9 11
14 14 12 10 9 7 8 5 2 2 1 4 6 6 6 4 2 2 3 5 6 6 6 5 3 1 2 3 2 3 3 3 7 5 4 4 8 7 5 7 8 9 9
18 14 13 11 9 8 5 3 4 2 3 5 6 5 5 4 5 4 5 4 5 4 4 4 5 5 4 3 3 3 2 2 5 4 6 6 8 9 6 7 7 6 9
15 15 14 13 11 10 8 5 4 4 4 6 3 5 4 4 3 5 4 4 4 2 3 4 4 3 4 3 2 9 9 3 1 2 3 4 7 6 13 9 8 6 11
20 17 14 14 13 10 11 7 6 6 3 4 2 3 3 6 5 4 2 2 3 2 0 3 3 6 4 4 3 2 5 2 4 2 3 5 2 5 7 7 12 12 12
17 18 17 16 13 12 9 9 8 5 5 4 3 4 4 4 5 5 3 3 2 3 5 5 8 4 4 4 3 4 2 0 2 1 3 7 5 7 5 7 8 6 10
Wind_Direction
135 121 122 118 109 106 112 113 111 110 110 113 115 95 81 89 90 95 96 100 106 106 94 90 94 89 87 86 89 89 91 94 99 96 97 102 98 98 102 114 116 98 100
126 129 132 126 119 115 113 115 115 114 111 107 91 98 88 87 88 96 99 105 104 109 100 99 94 93 90 89 86 87 94 103 106 112 106 94 91 92 97 95 88 100 106
132 127 143 131 127 119 124 124 123 120 114 102 91 95 95 92 97 101 102 106 106 104 105 97 95 94 93 90 91 95 99 107 119 128 119 95 91 95 100 95 95 100 106
129 144 135 130 133 127 121 114 112 113 114 109 107 98 93 93 97 101 106 107 112 107 103 100 96 93 92 94 88 85 79 62 56 248 353 97 91 87 95 97 100 104 109
141 125 115 138 141 142 132 128 117 114 100 106 105 107 99 101 102 101 103 107 108 107 106 102 94 92 94 96 93 85 69 29 52 64 59 93 91 93 99 102 105 98 95
147 101 120 136 140 135 140 146 139 120 107 105 115 112 108 107 103 101 102 109 104 107 110 106 101 100 97 99 97 102 76 327 147 106 91 72 80 98 96 95 98 102 100
119 116 128 135 142 137 141 150 143 141 131 120 120 115 115 112 108 109 110 108 112 112 113 108 103 100 104 100 101 99 36 323 103 91 113 98 95 100 99 101 103 103 102
127 121 133 135 146 144 152 166 150 155 142 119 117 101 91 92 107 108 107 111 105 105 111 110 109 106 105 106 114 118 293 338 107 103 82 86 99 99 103 103 103 105 106
124 140 139 142 141 154 146 154 151 149 143 128 125 113 120 120 101 97 99 114 121 114 115 116 112 114 121 131 121 128 275 354 89 50 124 115 112 108 103 104 106 107 107
118 131 122 73 140 114 144 139 140 135 133 126 125 125 124 111 107 95 79 106 120 126 124 114 110 118 133 149 143 167 208 207 125 117 107 102 131 119 114 113 111 111 112
143 147 131 120 162 113 117 123 130 129 122 126 126 132 127 111 103 111 108 88 131 146 128 121 128 129 124 128 163 183 214 225 112 132 99 109 133 126 122 121 117 117 114
139 160 120 128 98 132 108 124 132 143 124 128 135 137 158 139 115 141 135 106 109 162 146 136 143 166 182 149 162 209 227 211 92 148 110 114 134 135 130 129 122 121 123
157 121 107 98 119 134 126 159 141 158 146 134 141 160 133 115 146 129 107 156 216 187 183 174 180 101 309 92 120 232 240 153 133 108 118 125 130 137 139 133 133 129 125
141 138 108 120 112 120 130 196 123 107 142 142 142 168 144 148 162 134 162 199 191 184 202 155 178 195 324 167 186 205 171 24 137 103 123 132 143 140 146 145 142 145 141
142 128 131 125 132 109 154 119 109 129 59 142 161 169 161 138 148 155 219 202 239 169 165 207 157 169 182 200 167 255 139 194 169 132 130 144 148 153 156 158 161 156 155
160 147 128 142 140 135 93 72 88 51 141 85 89 120 143 60 140 175 188 203 221 181 235 180 155 158 211 173 171 182 112 264 317 124 130 146 159 166 170 171 172 172 171
170 153 146 141 145 157 130 170 147 206 112 124 60 119 59 124 178 203 260 243 316 127 105 202 225 219 211 206 192 189 187 197 200 185 149 148 155 175 183 178 178 174 184
169 160 163 156 149 161 123 148 60 230 13 122 183 160 167 169 185 179 186 248 247 198 198 184 222 298 232 321 222 194 208 184 218 179 172 153 177 167 181 181 187 183 183
117 175 174 154 161 152 130 137 170 156 147 6 46 96 153 159 174 189 179 178 216 218 217 180 134 273 276 236 236 241 193 216 194 178 166 144 184 213 175 172 176 188 194
162 192 188 167 139 147 132 151 236 155 137 171 107 138 132 169 184 220 143 161 220 273 327 252 156 218 246 247 215 176 203 203 214 222 144 196 190 199 149 166 175 180 197
197 181 192 176 144 166 177 196 188 205 159 159 142 134 153 181 188 199 160 166 192 232 223 261 217 200 71 8 14 354 292 202 222 204 174 189 169 199 156 179 186 187 183
198 188 190 191 177 199 175 187 234 345 105 12 106 146 182 207 219 259 217 179 186 202 214 227 267 41 98 54 60 292 267 279 214 241 159 192 192 215 191 197 204 153 178
186 189 190 195 186 191 248 200 143 353 216 204 176 162 167 197 194 214 226 206 197 219 218 202 216 222 190 176 211 238 245 238 219 236 206 208 179 211 193 203 213 188 203
192 186 191 192 198 185 197 239 129 275 311 55 212 106 182 187 209 205 224 232 222 230 227 230 205 192 218 163 223 241 233 201 345 276 286 183 249 214 189 186 211 190 189
200 181 191 192 198 212 179 242 186 233 241 202 83 99 211 184 216 223 220 238 259 182 284 197 249 194 196 168 200 270 264 336 301 292 320 309 169 260 180 213 187 197 192
197 182 186 190 196 193 206 190 224 282 290 331 74 312 210 150 182 167 186 207 190 187 197 215 213 222 171 218 235 277 312 103 35 13 257 264 285 223 221 216 227 194 175